Wind_Speed
26 27 28 29 30 31 31 31 29 29 29 28 28 28 27 27 28 27 25 24 25 24 23 24 24 24 23 23 24 25 25 25 26 27 27 27 26 26 27 27 27 26 26
25 26 27 27 28 29 30 30 30 29 30 30 29 29 28 29 29 27 27 27 25 23 23 24 24 24 24 24 24 25 26 27 27 27 28 29 29 29 29 28 27 27 28
25 25 25 27 28 28 28 28 29 31 31 31 30 30 29 28 28 27 28 27 26 25 24 25 24 24 24 24 24 25 25 27 28 29 30 30 30 30 30 30 29 29 30
25 26 25 27 27 27 28 28 29 30 30 30 30 30 30 29 29 28 28 28 27 26 24 25 25 25 25 25 24 25 26 27 27 28 30 31 31 32 32 32 32 33 33
25 26 26 27 26 26 27 28 28 29 29 29 30 30 29 28 29 29 28 28 27 25 25 25 24 25 25 26 25 25 26 27 28 28 28 29 30 31 33 34 35 35 35
24 25 25 25 25 26 26 27 27 28 28 29 29 29 30 29 29 28 28 27 26 25 25 24 25 26 26 27 28 27 26 27 29 29 30 31 32 31 32 33 35 36 36
22 23 24 24 24 24 25 26 26 26 26 27 28 29 28 28 29 29 28 27 26 26 26 26 26 26 25 25 26 27 27 27 28 29 31 32 33 33 33 34 34 35 36
21 22 23 24 24 24 24 25 25 26 27 27 27 28 28 28 29 28 28 28 27 26 26 26 26 26 26 25 26 27 28 28 29 29 30 32 33 34 33 33 34 35 35
20 21 22 23 23 24 24 24 24 24 25 25 26 26 26 27 28 28 28 28 27 26 25 26 27 27 27 26 27 27 27 27 28 29 31 32 33 34 34 34 34 34 34
19 21 22 23 23 23 24 24 24 24 24 24 23 24 24 25 25 26 26 27 27 27 26 27 27 27 27 27 27 27 27 28 29 30 30 30 31 32 32 33 33 33 33
20 21 21 21 22 23 23 24 24 24 24 24 23 23 23 23 23 23 24 25 26 27 27 26 26 26 26 27 27 27 27 28 29 30 30 30 30 30 31 32 32 32 33
20 21 21 20 21 22 23 23 23 23 23 23 23 23 22 23 23 23 24 24 25 26 27 26 27 27 27 26 27 27 28 28 28 29 30 30 30 30 31 31 32 32 33
21 21 21 20 21 21 21 22 22 21 21 21 22 22 23 23 23 22 22 23 24 24 25 25 26 26 26 26 26 26 26 26 27 27 28 28 28 29 30 31 32 32 32
20 20 20 20 21 21 20 20 19 19 18 19 20 21 21 22 22 22 22 22 22 23 23 23 24 25 25 25 25 25 25 26 26 26 26 27 27 28 29 30 31 31 31
21 20 20 20 20 20 19 18 18 18 17 18 18 18 19 19 20 19 20 20 21 21 21 20 21 22 23 23 24 24 24 24 24 24 24 25 26 27 28 29 29 29 30
21 20 20 19 19 18 17 16 16 16 16 16 15 16 16 17 18 18 18 19 19 19 19 18 19 19 20 20 21 22 22 22 22 23 24 25 25 26 27 27 28 29 30
20 19 18 18 17 16 16 15 15 14 14 14 13 14 14 15 15 15 16 16 16 16 17 17 17 18 18 18 19 19 20 20 21 22 23 24 24 25 25 26 27 28 28
19 17 17 16 16 15 14 14 13 13 12 12 11 11 12 12 12 12 13 14 15 15 15 16 16 16 16 17 18 18 19 19 20 21 21 22 23 24 24 25 25 26 26
17 16 15 15 14 13 13 12 12 12 11 11 10 11 11 11 11 12 12 13 13 13 13 14 14 14 15 16 17 17 18 18 19 20 20 21 22 22 23 23 24 24 24
14 14 14 14 12 11 10 10 10 10 9 9 9 9 10 10 10 11 11 11 12 12 13 12 13 13 13 13 14 15 16 17 18 18 19 20 20 21 21 21 22 22 21
13 13 13 12 10 9 8 7 7 7 7 7 7 8 8 8 8 9 10 9 10 10 11 11 12 12 11 11 12 13 14 14 15 16 16 17 17 18 19 19 19 18 18
12 12 10 9 8 7 7 6 5 5 5 5 5 6 6 6 6 6 7 7 8 8 8 9 9 9 10 10 11 11 11 12 12 13 14 14 15 15 16 16 16 16 16
10 9 8 7 6 5 5 5 4 4 4 3 3 4 4 4 3 4 4 4 5 5 6 6 7 7 8 8 9 9 9 10 11 11 12 12 12 13 13 14 14 14 14
8 7 7 6 5 5 4 3 3 3 3 2 3 2 2 2 2 1 1 1 2 3 3 4 5 5 6 6 7 7 8 8 8 9 9 10 11 11 12 12 12 12 12
8 7 6 6 6 5 4 4 4 3 3 2 2 2 2 1 1 2 2 2 2 2 2 3 3 4 4 5 6 6 6 6 6 6 7 8 9 9 10 10 10 11 11
8 8 7 7 7 6 6 6 5 5 4 4 4 4 4 4 4 4 4 3 3 3 3 3 4 4 4 5 5 5 5 4 5 5 6 7 8 8 9 9 9 9 9
Wind_Direction
277 277 276 274 273 273 273 272 270 270 266 265 267 266 266 266 264 260 257 258 260 259 259 257 255 255 253 251 247 246 247 245 244 245 246 249 252 252 254 257 257 259 263
279 280 279 276 274 274 272 271 271 271 270 268 268 266 267 266 264 260 256 259 259 256 257 258 257 253 251 250 251 250 248 245 243 245 248 251 253 253 255 256 255 257 261
280 282 280 277 277 274 274 273 270 271 271 269 268 266 266 265 263 261 259 257 256 257 257 255 258 257 254 253 253 251 249 245 244 245 249 251 253 254 256 257 257 259 262
279 279 279 279 278 275 274 274 272 271 270 269 268 267 266 265 265 264 260 257 257 259 259 256 261 261 259 257 254 251 249 247 247 249 251 253 255 254 255 258 259 262 262
279 280 280 277 277 277 277 277 275 273 271 270 267 265 264 264 263 262 261 260 260 260 262 262 262 262 260 256 254 252 250 250 251 251 254 256 257 257 257 260 262 263 265
277 279 279 277 277 278 278 279 277 274 271 270 267 264 263 262 262 261 261 263 263 262 261 261 261 260 258 255 253 253 254 252 251 252 255 256 257 259 261 263 264 264 266
280 280 281 281 281 281 278 279 276 274 272 270 268 265 262 262 261 262 263 264 264 262 260 259 260 259 259 257 255 255 256 255 255 255 256 256 257 259 263 264 264 265 268
287 284 285 284 282 281 280 277 275 272 274 271 268 266 263 262 263 264 264 263 264 263 261 258 258 258 260 259 258 258 256 255 255 256 258 259 259 261 263 264 264 267 269
294 293 290 288 285 283 282 279 275 274 274 272 268 268 264 264 264 264 263 262 263 263 262 261 261 259 261 261 260 260 256 254 256 258 259 261 261 262 262 263 264 266 267
297 295 294 291 289 286 283 280 278 275 274 272 270 268 266 265 263 262 261 262 262 263 262 259 259 259 261 261 259 258 257 257 259 260 261 263 264 263 264 266 268 269 271
300 298 298 293 291 288 285 281 278 276 273 271 269 267 266 266 264 262 261 262 262 262 262 260 259 259 261 262 262 262 261 261 261 261 263 264 265 265 267 268 270 271 274
303 299 298 295 292 290 287 283 280 276 273 270 268 265 265 264 262 262 261 262 263 262 261 259 259 261 262 263 262 262 263 261 262 262 264 264 265 265 267 270 271 273 276
307 303 299 298 295 292 288 285 281 278 275 271 269 267 266 264 261 260 260 261 262 261 259 259 259 259 259 260 261 263 262 260 259 261 262 263 265 266 268 270 272 275 277
309 307 303 300 298 296 292 288 282 279 276 272 270 268 266 262 259 258 259 259 259 258 256 256 257 257 258 260 261 261 261 261 261 262 263 263 266 269 271 272 274 275 277
309 308 304 302 301 299 295 290 282 276 274 272 271 268 263 261 259 258 258 258 259 259 258 258 260 259 259 260 260 261 262 262 263 263 265 268 270 272 273 275 276 277 278
308 306 303 302 301 299 293 287 283 276 272 270 270 269 266 262 261 261 260 260 261 260 261 260 260 259 260 261 261 261 261 261 262 265 268 269 271 273 274 275 276 277 279
309 307 305 303 301 298 293 287 282 277 271 267 267 267 266 265 263 262 261 260 262 263 264 262 262 260 262 262 262 263 263 264 266 268 269 270 272 273 275 275 277 279 280
309 308 306 303 300 298 294 288 280 273 271 270 270 270 268 265 262 259 258 260 260 263 264 263 265 262 260 259 259 261 263 265 266 268 268 271 272 274 275 277 278 279 280
312 310 309 307 304 300 295 286 281 275 271 270 268 269 269 266 263 263 262 261 261 262 263 264 263 259 258 259 259 260 261 263 266 268 270 271 273 274 275 276 277 278 280
316 316 315 313 308 303 299 290 285 277 269 266 266 270 269 268 266 266 267 267 266 264 262 261 260 261 259 260 261 261 262 265 267 270 272 274 275 276 278 279 279 279 280
319 319 318 316 312 309 305 302 296 284 273 268 269 273 274 271 267 267 268 267 264 261 258 260 260 262 262 264 266 266 267 268 271 273 275 277 278 279 280 281 282 282 283
324 325 324 321 316 314 313 310 303 293 279 273 276 278 278 279 273 265 261 260 261 262 263 264 265 265 266 269 273 274 274 275 277 278 279 279 280 281 283 284 285 286 287
333 335 337 333 331 330 327 321 310 303 297 292 287 287 285 290 282 274 270 266 266 270 271 273 275 276 277 280 282 282 282 283 283 283 282 282 284 285 287 288 287 287 288
344 348 351 354 356 358 354 357 354 346 334 323 319 319 322 317 303 286 284 290 297 294 290 287 290 293 294 294 296 294 293 292 289 287 287 289 291 292 292 293 293 292 292
3 7 12 21 25 27 28 30 31 25 22 17 8 8 7 10 34 42 34 23 11 356 340 329 324 323 321 317 314 311 308 304 301 299 300 301 303 305 305 303 302 300 298
23 27 31 37 42 45 50 51 54 52 48 52 55 59 68 72 68 61 55 52 46 40 34 22 9 358 351 345 340 337 333 328 324 320 320 320 319 317 315 313 311 309 305
Height
5818 5817 5817 5816 5815 5814 5814 5814 5814 5815 5815 5816 5817 5819 5820 5821 5821 5822 5822 5823 5824 5825 5826 5827 5827 5827 5828 5830 5831 5832 5833 5834 5836 5837 5838 5839 5841 5842 5843 5843 5844 5844 5845
5813 5812 5811 5810 5809 5808 5807 5808 5808 5808 5809 5810 5812 5812 5813 5813 5814 5815 5816 5816 5816 5818 5819 5820 5821 5822 5823 5824 5825 5826 5827 5828 5829 5831 5831 5833 5834 5835 5836 5837 5838 5838 5838
5807 5806 5805 5804 5803 5802 5802 5802 5803 5803 5803 5804 5805 5806 5806 5805 5806 5808 5809 5808 5810 5811 5812 5814 5815 5816 5817 5818 5819 5820 5821 5822 5823 5825 5826 5827 5827 5828 5829 5830 5832 5832 5832
5802 5801 5799 5798 5796 5796 5796 5796 5796 5796 5796 5797 5798 5799 5799 5799 5800 5800 5801 5802 5803 5804 5806 5807 5808 5809 5810 5811 5811 5813 5814 5815 5816 5817 5819 5821 5821 5822 5822 5823 5824 5825 5825
5796 5795 5793 5792 5790 5790 5790 5790 5789 5789 5790 5790 5790 5791 5792 5793 5794 5795 5796 5797 5797 5798 5799 5800 5801 5802 5803 5803 5804 5806 5807 5808 5809 5810 5811 5812 5814 5815 5815 5816 5817 5817 5817
5790 5789 5788 5786 5785 5784 5784 5783 5783 5783 5783 5782 5783 5783 5785 5786 5787 5788 5789 5790 5791 5791 5792 5794 5795 5795 5795 5796 5797 5798 5800 5801 5802 5803 5804 5805 5806 5807 5808 5808 5809 5809 5809
5784 5783 5782 5781 5779 5777 5777 5776 5776 5776 5776 5775 5775 5776 5778 5779 5780 5781 5781 5783 5784 5784 5786 5787 5787 5788 5788 5788 5789 5791 5791 5793 5794 5795 5797 5798 5799 5799 5800 5800 5800 5800 5800
5779 5777 5776 5774 5773 5771 5771 5770 5769 5769 5769 5768 5769 5769 5771 5772 5773 5773 5774 5776 5777 5777 5778 5779 5780 5781 5781 5781 5782 5782 5784 5785 5786 5787 5789 5790 5791 5791 5791 5792 5792 5792 5792
5773 5772 5770 5768 5766 5765 5764 5763 5763 5762 5762 5762 5762 5762 5763 5764 5765 5766 5767 5768 5770 5771 5771 5772 5772 5773 5773 5774 5775 5776 5776 5777 5779 5780 5781 5782 5782 5783 5783 5784 5784 5784 5783
5767 5766 5764 5762 5760 5758 5757 5756 5756 5756 5755 5755 5755 5756 5756 5757 5758 5758 5760 5761 5762 5763 5764 5764 5765 5765 5766 5767 5767 5768 5769 5770 5771 5772 5772 5773 5774 5774 5775 5775 5775 5775 5775
5762 5760 5758 5756 5754 5752 5751 5750 5749 5749 5748 5748 5749 5749 5750 5750 5751 5751 5752 5753 5754 5755 5756 5757 5757 5758 5758 5759 5760 5761 5762 5763 5763 5764 5764 5765 5766 5766 5766 5766 5766 5766 5766
5757 5755 5753 5750 5748 5747 5745 5743 5743 5742 5741 5741 5742 5742 5743 5743 5744 5744 5745 5746 5747 5747 5748 5749 5750 5750 5751 5752 5752 5753 5754 5755 5755 5756 5756 5757 5757 5757 5758 5758 5758 5757 5756
5752 5749 5747 5745 5743 5740 5739 5737 5736 5735 5735 5735 5735 5735 5736 5736 5736 5737 5738 5738 5739 5740 5740 5741 5742 5743 5743 5744 5745 5745 5746 5747 5747 5748 5748 5749 5749 5749 5750 5749 5749 5748 5747
5746 5744 5741 5739 5736 5734 5732 5731 5729 5728 5728 5728 5728 5728 5729 5729 5729 5730 5731 5731 5732 5732 5733 5734 5734 5735 5736 5737 5737 5738 5738 5739 5740 5740 5741 5741 5741 5741 5741 5741 5740 5739 5738
5741 5738 5735 5733 5730 5728 5726 5724 5723 5723 5722 5722 5722 5722 5722 5722 5723 5723 5724 5724 5725 5726 5726 5727 5728 5728 5729 5730 5730 5731 5731 5732 5732 5733 5733 5733 5733 5733 5733 5732 5731 5730 5729
5735 5732 5730 5727 5725 5723 5721 5719 5718 5717 5717 5716 5716 5716 5716 5716 5717 5717 5717 5718 5718 5719 5720 5720 5721 5722 5722 5723 5723 5724 5724 5725 5725 5726 5726 5726 5726 5725 5724 5724 5723 5722 5721
5730 5727 5724 5722 5720 5718 5716 5714 5713 5712 5712 5711 5711 5711 5711 5711 5711 5711 5712 5712 5713 5713 5714 5714 5715 5716 5716 5716 5717 5717 5718 5718 5718 5718 5718 5718 5718 5717 5717 5716 5715 5714 5713
5725 5722 5719 5717 5715 5713 5711 5709 5708 5707 5707 5707 5707 5706 5706 5706 5707 5707 5707 5707 5708 5708 5709 5709 5709 5710 5710 5711 5711 5711 5711 5711 5712 5711 5711 5711 5711 5710 5709 5709 5707 5706 5705
5720 5718 5715 5712 5710 5708 5706 5705 5704 5703 5703 5703 5703 5703 5702 5702 5702 5702 5702 5702 5703 5703 5704 5704 5704 5705 5705 5705 5705 5705 5705 5705 5705 5705 5704 5704 5703 5703 5702 5701 5700 5699 5697
5716 5714 5711 5708 5706 5704 5702 5701 5700 5700 5699 5699 5699 5699 5699 5699 5699 5699 5698 5698 5699 5699 5699 5700 5700 5700 5700 5700 5700 5700 5700 5699 5699 5699 5698 5698 5697 5696 5695 5695 5693 5692 5691
5713 5710 5707 5705 5703 5701 5700 5698 5697 5696 5696 5696 5696 5696 5695 5695 5695 5695 5695 5695 5695 5696 5696 5696 5696 5696 5696 5695 5695 5695 5694 5694 5694 5693 5693 5692 5691 5690 5689 5688 5687 5686 5684
5709 5707 5705 5702 5701 5699 5698 5696 5695 5694 5694 5693 5693 5693 5693 5693 5692 5693 5693 5693 5693 5693 5693 5693 5693 5693 5692 5692 5691 5690 5690 5689 5689 5688 5688 5687 5686 5685 5684 5683 5682 5680 5679
5707 5705 5702 5700 5699 5697 5696 5695 5694 5693 5692 5692 5692 5691 5691 5691 5691 5690 5690 5690 5690 5690 5690 5690 5690 5690 5689 5688 5688 5687 5686 5685 5685 5684 5683 5682 5682 5681 5679 5678 5677 5676 5675
5705 5703 5701 5699 5697 5696 5695 5694 5693 5692 5691 5691 5690 5690 5690 5689 5689 5689 5689 5689 5689 5688 5688 5688 5688 5687 5687 5686 5685 5684 5683 5682 5682 5681 5680 5679 5678 5677 5676 5675 5673 5672 5671
5704 5702 5700 5699 5697 5696 5695 5694 5693 5692 5691 5690 5690 5689 5689 5689 5689 5689 5689 5688 5688 5688 5687 5687 5687 5686 5685 5684 5683 5682 5681 5680 5679 5678 5678 5677 5675 5674 5673 5671 5670 5669 5667
5704 5702 5700 5699 5698 5696 5695 5694 5693 5692 5692 5691 5690 5690 5690 5689 5689 5689 5689 5688 5688 5688 5687 5687 5686 5685 5684 5683 5682 5681 5680 5679 5678 5677 5676 5675 5673 5672 5671 5669 5668 5666 5665